www.pogodaiklimat.ru

Погода и климат >> Архив погоды >> Россия >> Магаданская область >> Совхоз Эльген


ПОГОДА в Совхозе Эльген

  • Прогноз погоды в Совхозе Эльген
  • Монитор погоды в Совхозе Эльген

АРХИВ ПОГОДЫ в Совхозе Эльген

Время (UTC), дата Ветер
(напр.,м/с)
 
Видим.   Явления Облачность Т
(С)
Тd
(С)
f
(%)
Тe
(С)
Тes
(С)
Комфортность P
(гПа)
Po
(гПа)
Тmin
(С)
Tmax
(С)
R
(мм)
R24
(мм)
S
(см)
15 13.03 штиль 0 50 км ясно -40.3 -44.7 62 -40 -40 опасность
обморожения
1023.9 978.2
18 13.03 штиль 0 50 км ясно -41.6 -45.9 63 -42 -42 опасность
обморожения
1023.7 977.7
21 13.03 штиль 0 50 км ясно -42.2 -46.7 61 -42 -42 опасность
обморожения
1023.7 977.6 -43.2 48
00 14.03 З 1 50 км ясно -28.9 -35.3 54 -33 -29 опасность
обморожения
1020.5 977.0
03 14.03 штиль 0 50 км ясно -20.9 -29.6 45 -21 -16 1017.4 975.4
06 14.03 ЮВ 1 50 км ясно -18.8 -28.1 44 -22 -21 1016.0 974.4
09 14.03 СВ 1 50 км ясно -29.2 -34.3 61 -33 -33 опасность
обморожения
1018.0 974.5 -17.9
12 14.03 штиль 0 50 км ясно -38.0 -42.6 62 -38 -38 опасность
обморожения
1019.8 974.7
15 14.03 штиль 0 50 км ясно -41.0 -45.4 62 -41 -41 опасность
обморожения
1020.3 974.6
18 14.03 штиль 0 50 км ясно -42.7 -47.3 60 -43 -43 опасность
обморожения
1020.8 974.7
21 14.03 штиль 0 50 км ясно -42.6 -47.2 60 -43 -42 опасность
обморожения
1021.3 975.2 -43.5 48
00 15.03 Ю 1 50 км ясно -29.0 -36.5 48 -33 -29 опасность
обморожения
1018.5 975.0
03 15.03 штиль 0 50 км ясно -20.2 -30.4 40 -20 -15 1015.8 973.9
06 15.03 Ю 1 50 км ясно -19.4 -28.3 45 -22 -21 1015.2 973.5
09 15.03 СВ 1 50 км ясно -28.7 -33.8 61 -33 -33 опасность
обморожения
1017.4 974.1 -18.2
12 15.03 штиль 0 50 км ясно -37.9 -42.2 64 -38 -38 опасность
обморожения
1020.1 975.0
15 15.03 штиль 0 50 км ясно -40.7 -45.1 62 -41 -41 опасность
обморожения
1021.5 975.8
18 15.03 штиль 0 50 км ясно -42.6 -47.2 60 -43 -43 опасность
обморожения
1022.8 976.7
21 15.03 штиль 0 50 км ясно -41.7 -46.3 61 -42 -41 опасность
обморожения
1023.5 977.5 -43.2 48
00 16.03 Ю 2 50 км 3/0
[Ci fib]
-30.6 -36.5 56 -38 -35 опасность
обморожения
1021.7 977.8
03 16.03 Ю 1 50 км 10/0
[Cs]
-22.7 -30.4 49 -26 -22 1019.2 976.8
06 16.03 Ю 1 50 км 8/0
[Cs]
-20.5 -29.1 46 -24 -23 1018.1 976.1
09 16.03 штиль 0 50 км 6/0
[Ci fib]
-27.7 -33.1 60 -28 -28 1020.0 976.7 -19.1
12 16.03 штиль 0 50 км 10/0
[Cs]
-33.2 -38.1 61 -33 -33 опасность
обморожения
1021.4 977.1
15 16.03 штиль 0 50 км 10/0
[Cs]
-34.9 -39.2 65 -35 -35 опасность
обморожения
1021.6 977.0
18 16.03 штиль 0 50 км 8/0
[Cs]
-38.7 -42.8 65 -39 -39 опасность
обморожения
1022.4 977.0
21 16.03 штиль 0 50 км 4/0
[Ci fib]
-38.8 -43.2 63 -39 -38 опасность
обморожения
1022.5 977.1 -39.5 48
00 17.03 Ю 1 50 км 10/0
[Cs]
-29.1 -34.8 58 -33 -30 опасность
обморожения
1020.3 976.8
03 17.03 Ю 1 50 км 10/0
[Cs]
-21.6 -28.7 53 -25 -21 1017.2 975.0
06 17.03 Ю 1 50 км 6/0
[Cs]
-19.5 -26.7 53 -22 -21 1015.8 974.1
09 17.03 штиль 0 50 км 6/0
[Ci fib]
-28.2 -32.0 70 -28 -28 1017.7 974.4 -18.8
12 17.03 штиль 0 50 км 10/0
[Cs]
-32.8 -36.8 67 -33 -33 опасность
обморожения
1019.2 975.0
15 17.03 штиль 0 50 км 10/0
[Cs]
-37.2 -41.1 67 -37 -37 опасность
обморожения
1019.9 974.9
18 17.03 штиль 0 50 км 8/0
[Cs]
-39.0 -43.3 64 -39 -39 опасность
обморожения
1020.3 975.0
21 17.03 штиль 0 50 км 10/0
[Ac trans Cs]
-36.4 -40.8 64 -36 -36 опасность
обморожения
1020.3 975.4 -39.6 48
00 18.03 Ю 2 50 км 10/0
[Ac trans Cs]
-26.6 -31.7 62 -34 -31 опасность
обморожения
1018.2 975.2
03 18.03 С 2 20 км слаб. снег 10/0
[Ac As]
-18.6 -25.4 55 -24 -23 1016.0 974.4
06 18.03 С 3 20 км слаб. снег 10/0
[Ac As]
-19.6 -27.6 49 -27 -27 1016.4 974.6
09 18.03 С 3 50 км позёмок {снег} 9/3 1000 м
[Sc Ac trans Ci fib]
-21.1 -28.0 54 -29 -29 1017.4 975.4 -18.2 0.2
12 18.03 СЗ 1 50 км {снег, метель} 6/0
[Ac trans Ci fib]
-27.1 -30.9 70 -31 -31 опасность
обморожения
1019.6 976.4
15 18.03 СЗ 1 50 км 4/0
[Ci fib]
-28.8 -31.7 76 -33 -33 опасность
обморожения
1020.5 977.0
18 18.03 Ю 2 50 км 5/0
[Ci fib]
-33.6 -36.8 73 -42 -42 опасность
обморожения
1022.4 978.0
21 18.03 ЮВ 1 50 км 9/4 1000 м
[Sc Ac trans Ci fib]
-32.7 -36.4 69 -37 -37 опасность
обморожения
1023.5 979.2 -34.9 48
00 19.03 СВ 1 50 км 9/3 1000 м
[Sc Ac trans Ci fib]
-24.5 -30.0 60 -28 -26 1022.3 979.5
03 19.03 С 3 50 км 9/4 1000 м
[Sc Ac trans Ci fib]
-18.5 -27.9 43 -26 -25 1020.9 979.1
06 19.03 С 2 50 км 8/0
[Ac trans Ci fib]
-18.4 -27.2 46 -24 -23 1021.1 979.3
09 19.03 СЗ 2 50 км 8/0
[Ac trans Ci fib]
-21.5 -27.9 56 -28 -28 1021.9 979.6 -17.8
12 19.03 ЮВ 1 50 км 8/0
[Ac trans Ci fib]
-30.8 -34.3 71 -35 -35 опасность
обморожения
1024.0 980.0
15 19.03 В 1 50 км 8/0
[Ac trans Ci fib]
-35.4 -39.2 68 -40 -40 опасность
обморожения
1025.2 980.3
18 19.03 СВ 1 50 км 6/0
[Ci fib]
-37.0 -41.0 66 -42 -42 опасность
обморожения
1026.0 980.8
21 19.03 штиль 0 50 км 8/0
[Ci fib]
-37.0 -41.3 64 -37 -37 опасность
обморожения
1026.7 981.5 -39.1 48
00 20.03 Ю 1 50 км 8/0
[Ac trans Ci fib]
-25.7 -31.9 56 -29 -26 1024.7 981.6
03 20.03 ЮВ 1 50 км 4/0
[Ac trans Ci fib]
-19.1 -27.9 46 -22 -18 1022.5 980.6
06 20.03 Ю 1 50 км 3/0
[Ci fib]
-16.8 -26.2 44 -20 -18 1021.4 979.9
09 20.03 СВ 1 50 км 6/0
[Ci fib]
-25.7 -31.1 60 -29 -29 1023.9 980.8 -16.5
12 20.03 В 1 50 км 6/0
[Ci fib]
-34.9 -39.1 65 -40 -40 опасность
обморожения
1027.0 982.2

 

Местоположение метеостанции Совхоз Эльген (Магаданская область, Россия): широта 62.80 долгота 150.60 высота над уровнем моря 312 м.

В архиве по умолчанию представлена погода в Совхозе Эльген за последнюю неделю. Архивные данные за месяц целиком и за предыдущие месяцы, начиная с января 2011 года, Вы можете получить, выбрав интересующий диапазон дат из раскрывающегося списка и нажав кнопку "Ввод!".


*Определитесь, кто Вы:
робот инопланетянин человек

Внимание! Время в таблицах - всемирное. Для получения местного времени необходимо прибавить поправку, которая равна 11 ч.

Смотрите также архив погоды в соседних городах и на ближайших метеорологических станциях:

Погода в Ягодной (Магаданская область, Россия) (60 км)
Погода в Усть-Бохапче (Магаданская область, Россия) (78 км)
Погода в Сеймчане (Магаданская область, Россия) (92 км)
Погода в Среднекане (Магаданская область, Россия) (95 км)
Погода на Озере Джека Лондона (Магаданская область, Россия) (98 км)
Погода в Сусумане (Магаданская область, Россия) (127 км)
Погода в Колымской (Магаданская область, Россия) (188 км)
Погода в Усть-Омчуге (Магаданская область, Россия) (194 км)
Погода в Талой (Магаданская область, Россия) (206 км)
Погода в Балыгычане (Магаданская область, Россия) (214 км)

Пояснения к столбцам:

Ветер - указаны скорость ветра в м/с - средняя за 10 мин, порывы в срок и между сроками (в фигурных скобках) и направление, откуда дует ветер: С - северный, СВ - северо-восточный, В - восточный, ЮВ - юго-восточный, Ю - южный, ЮЗ - юго-западный, З - западный, СЗ - северо-западный.
Видимость - горизонтальная дальность видимости в метрах или километрах. При видимости от 1 до 10 км при отсутствии осадков обычно наблюдается дымка, при ухудшении видимости до 1 км и менее - туман. В сухую погоду видимость может ухудшаться дымом, пылью или мглою.
Явления - указаны атмосферные явления, наблюдавшиеся в срок или в последний час перед сроком; фигурными скобками обозначены явления, наблюдавшиеся между сроками (за 1-3 часа до срока); квадратными скобками обозначены град или гололедные отложения с указанием их диаметра в мм.
Облачность - указаны через наклонную черту общая и нижняя облачность в баллах и высота нижней границы облаков в метрах; квадратными скобками обозначены формы облаков: Ci - перистые, Cs - перисто-слоистые, Cc - перисто-кучевые, Ac - высококучевые, As - высокослоистые, Sc - слоисто-кучевые, Ns - слоисто-дождевые, Cu - кучевые, Cb - кучево-дождевые. Подробнее классификацию облаков см. в Атласе облаков (PDF).
T - Температура воздуха - температура, измеренная на высоте 2 м над землей.
Td - Температура точки росы - температура, при понижении до которой содержащийся в воздухе водяной пар достигнет насыщения.
f - Относительная влажность воздуха - влажноcть воздуха, измеренная на высоте 2 м над землей.
Te - Эффективная температура - температура, которую ощущает одетый по сезону человек в тени. Характеристика душности погоды. При расчете учитывается влияние влажности воздуха и скорости ветра на теплоощущения человека.
Tes - Эффективная температура на солнце - температура, которую ощущает человек, с поправкой на солнечный нагрев. Характеристика знойности погоды. Зависит от высоты солнца над горизонтом, облачности и скорости ветра. Ночью, в пасмурную погоду, а также при ветре 12 м/с и более поправка равна нулю.
P - Атмосферное давление - приведенное к уровню моря атмосферное давление.
Po - Атмосферное давление - измеренное на уровне метеостанции атмосферное давление.
Tmin - Минимальная температура - минимум температуры воздуха на высоте 2 м над землей.
Tmax - Максимальная температура - максимум температуры воздуха на высоте 2 м над землей.
R - Количество осадков - Количество выпавших осадков за период времени, мм. При наведении курсора мыши на число - период времени, за который выпало указанное количество осадков.
R24 - Количество осадков - Количество выпавших осадков за 24 часа, мм.
S - Снежный покров - Высота снежного покрова, см. При наведении курсора мыши на число - состояние снежного покрова и степень покрытия местности в баллах.